Torna al catalogo

RESURS DK-1

AttivoScienzaVLEO
NORAD 29228·PAYLOAD·🇷🇺 Russia

Lanciato Jun 15, 2006 da Baikonur Cosmodrome

Loading…

Prossimi Passaggi (prossime 24 ore)

TLE

AggiornatoSource: Space-Track

Epoca: Sep 14, 2026, 14:18 UTC

1 29228U 06021A   26257.59620716  .00001512  00000-0  90261-4 0  9991
2 29228  69.9301 108.0534 0005425 214.4413 145.6403 15.13511882116106

Traccia RESURS DK-1 in tempo reale con AllMySat

Download on the App Store